[[{"header":{"parameterUnit":"m.s-1","parameterCategory":1,"la1":30.2991,"la2":30.254,"lo1":-89.0895,"lo2":-89.0444,"dy":0.0017,"dx":0.0017,"nx":28,"ny":28,"refTime":"2024-05-10T21:00:00:Z","depth":0,"parameterNumber":2,"parameterNumberName":"U-component_of_WINDS"},"data":[0,0,0,0,0,0,0,0,0,0,0,0,0,0,0,0,0,0,0,0,0,0,0,0,0,0,0,0,0,0,0,0,0,0,0,0,0,0,0,0,0,0,0,0,0,0,0,0,0,0,0,0,0,0,0,0,0,0,0.6456,0.6457,0,0.6569,0.6571,0.6572,0.6652,0.6652,0.6653,0.6654,0.6772,0.6774,0.6777,0,0,0,0,0,0,0,0,0,0,0,0,0,0.631,0.6313,0.6456,0.6457,0.6458,0.6569,0.6571,0.6572,0.6652,0.6652,0.6653,0.6654,0.6771,0.6774,0.6777,0,0,0,0,0,0,0,0,0,0,0,0,0,0.6394,0.6313,0.6455,0.6511,0.6518,0.6569,0.6571,0.6573,0.6651,0.6652,0.6653,0.6654,0.677,0.6774,0.6777,0.6782,0,0,0.6789,0.6791,0,0,0,0,0,0,0,0,0.6389,0.6399,0.6502,0.6508,0.6515,0.6597,0.6563,0.6643,0.6651,0.6601,0.6654,0.6655,0.6713,0.6722,0.6741,0.6788,0.6793,0.6789,0.6792,0.6793,0.6795,0,0,0,0,0,0,0,0.6383,0.6394,0.6501,0.6503,0.6511,0.6532,0.6545,0.6578,0.665,0.6605,0.6611,0.6623,0.6717,0.6737,0.6744,0.6795,0.6789,0.6793,0.6795,0.6797,0.6853,0.6852,0,0,0,0,0,0,0.6368,0.6389,0.6497,0.6504,0.6453,0.6534,0.6548,0.657,0.665,0.6663,0.6623,0.6627,0.673,0.674,0.6749,0.676,0.6793,0.6797,0.6799,0.6853,0.6852,0.6852,0,0,0,0,0,0,0.6365,0.6377,0.6493,0.6448,0.6465,0.6535,0.6559,0.6572,0.6592,0.6663,0.6677,0.663,0.6731,0.6743,0.6774,0.6765,0.6799,0.6802,0.6854,0.6853,0.6852,0.6782,0,0,0,0,0,0,0.636,0.6375,0.6377,0.6448,0.6467,0.6514,0.6559,0.6573,0.6598,0.6605,0.6674,0.6686,0.6733,0.6767,0.6777,0.6771,0.6805,0.6855,0.6854,0.6852,0.6786,0.6779,0.6773,0,0,0,0,0,0.6355,0.6353,0.6377,0.6389,0.647,0.6514,0.6525,0.6578,0.6597,0.66,0.6646,0.6684,0.6765,0.677,0.6782,0.6777,0.6856,0.6854,0.6853,0.6789,0.678,0.6773,0,0,0,0,0,0,0.628,0.6363,0.639,0.6412,0.6455,0.6527,0.6532,0.6567,0.6606,0.6611,0.6676,0.6691,0.6715,0.6749,0.6753,0.6786,0.6815,0.6816,0.6762,0.6755,0.6749,0.674,0.6808,0,0,0,0,0,0.6266,0.6293,0.6365,0.6377,0.6397,0.6461,0.6482,0.6519,0.6567,0.6586,0.6634,0.6679,0.6715,0.6737,0.6774,0.6792,0.6808,0.6794,0.6788,0.6782,0.6782,0.6794,0.6788,0.6846,0.6846,0.6846,0,0,0.6237,0.6286,0.63,0.6363,0.6401,0.6429,0.6476,0.6503,0.6524,0.659,0.6621,0.6658,0.6714,0.6737,0.675,0.6767,0.677,0.678,0.6775,0.6777,0.6791,0.6786,0.6781,0.6844,0.6845,0.6845,0,0,0.6199,0.6239,0.6253,0.629,0.6347,0.6389,0.6393,0.646,0.6487,0.6519,0.6569,0.6596,0.6657,0.6694,0.6721,0.6698,0.6734,0.6708,0.6675,0.6686,0.6681,0.6678,0.6669,0.6665,0.6707,0.6707,0.6707,0,0.6156,0.6199,0.6256,0.6281,0.6307,0.6368,0.6384,0.6417,0.6483,0.65,0.6518,0.6595,0.6637,0.667,0.6664,0.6684,0.6691,0.67,0.6677,0.6674,0.6671,0.6664,0.6661,0.6704,0.6704,0.6704,0.6705,0,0.6144,0.6173,0.6178,0.624,0.6267,0.6287,0.6348,0.6369,0.6405,0.6445,0.6478,0.653,0.6578,0.659,0.6624,0.6628,0.6637,0.6665,0.6695,0.6661,0.6656,0.6653,0.6699,0.67,0.6701,0.6702,0,0,0.6061,0.6154,0.6155,0.6184,0.6251,0.6276,0.6299,0.6346,0.6363,0.6407,0.6428,0.6478,0.6505,0.6535,0.6575,0.6585,0.6563,0.6612,0.6614,0.6601,0.657,0.6548,0.6544,0.6588,0.6588,0.6588,0.6566,0,0.6032,0.6076,0.6128,0.6154,0.6182,0.6241,0.6261,0.6305,0.6344,0.6374,0.6418,0.6452,0.6485,0.6504,0.6516,0.6563,0.6558,0.6565,0.6609,0.6609,0.6592,0.6541,0.6517,0.6494,0.6564,0.6563,0.6563,0,0.6005,0.6045,0.6073,0.6139,0.6153,0.617,0.6218,0.6246,0.6297,0.6325,0.6359,0.6402,0.6431,0.6458,0.6498,0.6502,0.6523,0.6549,0.6549,0.6555,0.6583,0.6544,0.6488,0.6484,0.656,0.6561,0.6561,0,0.594,0.6002,0.6027,0.605,0.6128,0.6138,0.6171,0.6224,0.6249,0.6291,0.6308,0.6353,0.6378,0.6412,0.6466,0.6482,0.6501,0.6533,0.6525,0.6523,0.6525,0.6524,0.6471,0.654,0.654,0.654,0.654,0,0.5903,0.5918,0.5999,0.6014,0.6033,0.6094,0.6112,0.615,0.6197,0.6221,0.6275,0.6297,0.6368,0.6399,0.6442,0.6468,0.6479,0.6503,0.6514,0.6497,0.6494,0.6511,0.6514,0.6539,0.6539,0.654,0.654,0,0.5833,0.5889,0.592,0.5991,0.6009,0.602,0.6081,0.6098,0.6141,0.6171,0.6182,0.6249,0.6288,0.6346,0.6402,0.6431,0.6451,0.647,0.6433,0.6439,0.6428,0.6428,0.6383,0.638,0.6451,0.645,0.645,0,0.5805,0.5818,0.589,0.591,0.5941,0.5973,0.5999,0.606,0.6085,0.6145,0.6155,0.6198,0.6236,0.6295,0.635,0.6393,0.6413,0.6394,0.642,0.6403,0.6412,0.641,0.6412,0.6388,0.6386,0.6386,0.6385,0,0.5749,0.5776,0.5811,0.5855,0.5885,0.5923,0.5964,0.5978,0.6048,0.6073,0.6114,0.6143,0.62,0.6242,0.6293,0.6329,0.6368,0.6377,0.6377,0.636,0.6338,0.6349,0.6415,0.6377,0.6378,0.6378,0.6379,0.6379,0.5699,0.5713,0.5766,0.5804,0.5841,0.5878,0.5898,0.5944,0.5978,0.6029,0.6064,0.6102,0.6155,0.6227,0.626,0.6292,0.6309,0.6309,0.6309,0.6308,0.6302,0.6333,0.6301,0.6302,0.6302,0.6302,0.6302,0,0.5645,0.5683,0.5716,0.5772,0.5801,0.5837,0.5884,0.5907,0.5939,0.5985,0.6021,0.6067,0.6108,0.6166,0.6212,0.6226,0.6245,0.6236,0.6235,0.6242,0.6285,0.6279,0.6219,0.6219,0.6219,0.6219,0.6219,0.6219,0.5621,0.5646,0.568,0.5725,0.5763,0.58,0.5824,0.5859,0.5896,0.5945,0.5979,0.6017,0.6068,0.6118,0.6157,0.6174,0.6188,0.6172,0.6193,0.6232,0.6239,0.6246,0.6242,0.6175,0.6175,0.6149,0.6148,0.6148]},{"header":{"parameterUnit":"m.s-1","parameterCategory":1,"la1":30.2991,"la2":30.254,"lo1":-89.0895,"lo2":-89.0444,"dy":0.0017,"dx":0.0017,"nx":28,"ny":28,"refTime":"2024-05-10T21:00:00:Z","depth":0,"parameterNumber":3,"parameterNumberName":"V-component_of_WINDS"},"data":[0,0,0,0,0,0,0,0,0,0,0,0,0,0,0,0,0,0,0,0,0,0,0,0,0,0,0,0,0,0,0,0,0,0,0,0,0,0,0,0,0,0,0,0,0,0,0,0,0,0,0,0,0,0,0,0,0,0,0.0571,0.057,0,0.047,0.0469,0.0468,0.0431,0.0432,0.0432,0.0432,0.0327,0.0324,0.0321,0,0,0,0,0,0,0,0,0,0,0,0,0,0.073,0.0727,0.0571,0.057,0.0569,0.0471,0.0469,0.0468,0.0431,0.0432,0.0432,0.0433,0.0328,0.0325,0.0321,0,0,0,0,0,0,0,0,0,0,0,0,0,0.0648,0.0727,0.0572,0.0539,0.0535,0.0471,0.0469,0.0467,0.0431,0.0432,0.0432,0.0433,0.033,0.0325,0.032,0.0281,0,0,0.0306,0.0304,0,0,0,0,0,0,0,0,0.0653,0.0643,0.0545,0.0541,0.0536,0.0464,0.0487,0.0405,0.0431,0.0471,0.0432,0.0433,0.0372,0.0364,0.0344,0.0276,0.0272,0.0306,0.0303,0.0301,0.03,0,0,0,0,0,0,0,0.0659,0.0647,0.0531,0.0544,0.0538,0.0528,0.0517,0.0471,0.042,0.0467,0.0464,0.0453,0.037,0.0349,0.0341,0.027,0.0306,0.0302,0.0299,0.0297,0.0163,0.0162,0,0,0,0,0,0,0.067,0.0652,0.0535,0.0528,0.0597,0.0525,0.0513,0.0487,0.042,0.041,0.0453,0.0452,0.0356,0.0347,0.0337,0.0285,0.0301,0.0297,0.0294,0.0164,0.0163,0.0162,0,0,0,0,0,0,0.0674,0.066,0.0539,0.0589,0.0573,0.0522,0.0493,0.0484,0.0463,0.0409,0.04,0.044,0.0356,0.0344,0.0295,0.0281,0.0294,0.029,0.0165,0.0164,0.0162,0.0182,0,0,0,0,0,0,0.0679,0.0662,0.0647,0.0589,0.057,0.0499,0.0492,0.0482,0.0455,0.0453,0.0395,0.0386,0.0356,0.0302,0.029,0.0275,0.0286,0.0166,0.0164,0.0163,0.0183,0.0182,0.0181,0,0,0,0,0,0.0684,0.0657,0.0646,0.0632,0.0551,0.0498,0.0487,0.0454,0.0454,0.0438,0.0404,0.0388,0.0285,0.0298,0.0284,0.0267,0.0166,0.0165,0.0163,0.0183,0.0182,0.0182,0,0,0,0,0,0,0.0714,0.0648,0.0636,0.0589,0.055,0.0492,0.0471,0.0454,0.0413,0.0413,0.0373,0.036,0.0314,0.0286,0.0301,0.0225,0.0225,0.022,0.0244,0.0243,0.0243,0.025,0.0283,0,0,0,0,0,0.0715,0.0678,0.0623,0.0586,0.0567,0.0523,0.0498,0.0476,0.0433,0.0416,0.0378,0.0336,0.0294,0.0267,0.0226,0.0179,0.0165,0.016,0.016,0.016,0.0156,0.0127,0.0124,0.0157,0.0157,0.0157,0,0,0.0716,0.0676,0.0655,0.0591,0.0558,0.0519,0.0509,0.0469,0.044,0.041,0.0361,0.0331,0.0282,0.0233,0.021,0.0208,0.0144,0.0158,0.0158,0.0154,0.0125,0.0122,0.0119,0.0155,0.0156,0.0156,0,0,0.0699,0.0666,0.0631,0.0598,0.0548,0.0518,0.051,0.0454,0.0434,0.0384,0.036,0.0325,0.0254,0.0219,0.0193,0.0162,0.0145,0.0149,0.0146,0.0118,0.0115,0.0113,0.01,0.0096,0.0146,0.0146,0.0146,0,0.0708,0.065,0.0615,0.0576,0.0548,0.052,0.0483,0.0453,0.0391,0.0372,0.0371,0.0281,0.0246,0.0188,0.018,0.016,0.0148,0.0155,0.0119,0.0116,0.0113,0.01,0.0096,0.0147,0.0147,0.0147,0.0147,0,0.0661,0.0621,0.0599,0.054,0.051,0.0473,0.0432,0.0405,0.0385,0.0355,0.0304,0.0261,0.021,0.0195,0.0175,0.0134,0.0134,0.0127,0.0126,0.0111,0.0098,0.0093,0.0148,0.0148,0.0147,0.0147,0,0,0.066,0.0582,0.0574,0.0547,0.0489,0.0457,0.0418,0.0368,0.0344,0.0303,0.0268,0.0209,0.0201,0.0171,0.0147,0.0123,0.0099,0.0118,0.0116,0.0114,0.0048,0.0052,0.0047,0.0088,0.0087,0.0086,0.0051,0,0.0634,0.0563,0.0531,0.0474,0.0435,0.0407,0.0373,0.0333,0.0304,0.0267,0.0234,0.0192,0.0186,0.0168,0.0143,0.0107,0.0085,0.0109,0.0053,0.0052,0.0065,0.0041,0.0046,0.0015,0.0046,0.0045,0.0045,0,0.0594,0.0553,0.0492,0.0437,0.042,0.0389,0.034,0.0305,0.0259,0.0239,0.0205,0.0182,0.0139,0.0142,0.008,0.0098,0.0073,0.0052,0.005,0.0042,0.0046,0.0031,0.0005,-0.0001,0.0037,0.0038,0.0038,0,0.0597,0.0526,0.048,0.0457,0.0392,0.0371,0.0343,0.0298,0.0269,0.0226,0.0207,0.016,0.0133,0.0096,0.0061,0.0067,0.0002,0.0003,-0.0017,-0.0016,-0.003,-0.0029,-0.0063,-0.0043,-0.0043,-0.0043,-0.0043,0,0.0571,0.0534,0.048,0.0451,0.0409,0.0372,0.0331,0.0301,0.026,0.0224,0.0198,0.0165,0.012,0.0081,0.0053,0.0006,-0.0006,-0.0024,-0.0031,-0.0023,-0.002,-0.0041,-0.004,-0.0044,-0.0044,-0.0044,-0.0043,0,0.0566,0.0529,0.0476,0.0419,0.0404,0.0375,0.0325,0.0296,0.0266,0.0221,0.0208,0.016,0.0113,0.0074,0.0012,-0.0007,-0.0058,-0.0065,-0.0042,-0.0046,-0.0064,-0.0063,-0.0113,-0.0122,-0.0094,-0.0095,-0.0095,0,0.0552,0.0523,0.0462,0.0436,0.0408,0.0367,0.0338,0.03,0.027,0.0215,0.0192,0.0142,0.0101,0.0026,-0.0015,-0.0063,-0.0073,-0.0087,-0.008,-0.0071,-0.0076,-0.0074,-0.0078,-0.0088,-0.0088,-0.0088,-0.0088,0,0.0528,0.0511,0.047,0.0421,0.0387,0.0347,0.0307,0.0287,0.0241,0.0209,0.016,0.0128,0.0064,0.0015,-0.0037,-0.0067,-0.0086,-0.009,-0.0098,-0.009,-0.0076,-0.0086,-0.0046,-0.0089,-0.0089,-0.0089,-0.0089,-0.0089,0.0517,0.0489,0.0441,0.0396,0.0361,0.0324,0.0293,0.0258,0.0217,0.0162,0.0142,0.0092,0.0045,-0.0028,-0.0058,-0.0099,-0.0101,-0.0111,-0.0114,-0.0117,-0.0117,-0.0068,-0.0108,-0.0108,-0.0108,-0.0108,-0.0108,0,0.049,0.0458,0.0417,0.036,0.0324,0.0311,0.0265,0.0235,0.0191,0.0149,0.0108,0.0051,0.0003,-0.0042,-0.0093,-0.0117,-0.0127,-0.0129,-0.0129,-0.0136,-0.0111,-0.01,-0.012,-0.012,-0.012,-0.012,-0.012,-0.012,0.0472,0.0424,0.04,0.0334,0.0302,0.0252,0.0227,0.0192,0.0157,0.0095,0.0055,0.0026,-0.0018,-0.0072,-0.0118,-0.013,-0.0148,-0.0148,-0.0163,-0.0139,-0.0137,-0.0136,-0.0126,-0.0151,-0.0151,-0.0185,-0.0185,-0.0185]}]]